This demonstration page uses our WeatherBlox Daily Observations layout. Learn more.

Hourly Observations for October 31, 2017

Temp ( °F °C ) Dew Point ( °F °C ) Humidity (%) Winds ( mph kmh ) Pressure ( in mb ) Visibility ( mi km ) Precip ( " mm )
12:54 am 00:54 Cloudy 36 2.2 19 -7.2 50 50 NNW 10 17 30.27 1025 10 16.09344 0 0
1:54 am 01:54 Cloudy 36 2.2 20 -6.7 52 52 NW 6 9 30.27 1025 10 16.09344 0 0
2:54 am 02:54 Cloudy 35 1.7 19 -7.2 52 52 NNW 7 11 30.27 1025 10 16.09344 0 0
3:54 am 03:54 Cloudy 34 1.1 18 -7.8 52 52 N 7 11 30.27 1025 10 16.09344 0 0
4:54 am 04:54 Cloudy 34 1.1 18 -7.8 52 52 NW 5 7 30.27 1025 10 16.09344 0 0
5:54 am 05:54 Cloudy 32 0 19 -7.2 59 59 WNW 5 7 30.27 1025 10 16.09344 0 0
6:54 am 06:54 Mostly Cloudy 30 -1.1 19 -7.2 64 64 Calm 30.27 1025 10 16.09344 0 0
7:54 am 07:54 Clear 26 -3.3 19 -7.2 75 75 S 3 6 30.24 1024 10 16.09344 0 0
8:54 am 08:54 Sunny 28 -2.2 19 -7.2 69 69 SW 3 6 30.24 1024 10 16.09344 0 0
9:54 am 09:54 Sunny 30 -1.1 21 -6.1 69 69 S 5 7 30.27 1025 10 16.09344 0 0
10:54 am 10:54 Mostly Cloudy 32 0 21 -6.1 64 64 S 7 11 30.24 1024 10 16.09344 0 0
11:54 am 11:54 Cloudy 33 0.6 20 -6.7 58 58 S 7 11 30.24 1024 10 16.09344 0 0
12:54 pm 12:54 Cloudy 36 2.2 19 -7.2 50 50 SSW 8 13 30.21 1023 10 16.09344 0 0
1:46 pm 13:46 Cloudy with Light Snow 33 0.6 27 -2.8 78 78 SSW 15 24 30.21 1023 2 3.218688 0.001 0.001
1:54 pm 13:54 Cloudy with Light Snow 32 0 28 -2.2 85 85 SSW 14 22 30.18 1022 2 3.218688 0.001 0.001
2:50 pm 14:50 Cloudy with Light Snow 32 0 27 -3 80 80 S 10 17 30.18 1022 2 3.218688 0.001 0.001
2:54 pm 14:54 Cloudy with Light Snow 32 0 28 -2.2 85 85 S 10 17 30.12 1020 2 3.218688 0.001 0.001
3:12 pm 15:12 Cloudy with Light Snow 32 0 28 -2.2 85 85 S 10 17 30.15 1021 3 4.828032 0.001 0.001
3:21 pm 15:21 Cloudy with Light Snow 32 0 28 -2.2 85 85 S 10 17 30.15 1021 3 4.828032 0.001 0.001
3:29 pm 15:29 Cloudy with Light Snow 32 0 28 -2.2 85 85 SSW 12 19 30.15 1021 3 4.828032 0.001 0.001
3:54 pm 15:54 Cloudy with Light Snow 32 0 28 -2.2 85 85 SSW 8 13 30.09 1019 3 4.828032 0.001 0.001
4:00 pm 16:00 Cloudy with Light Snow 32 0 28 -2.2 85 85 S 8 13 30.15 1021 2.5 4.02336 0.001 0.001
4:20 pm 16:20 Cloudy with Light Snow 32 0 28 -2.2 85 85 SSE 9 15 30.12 1020 3 4.828032 0.001 0.001
4:27 pm 16:27 Cloudy with Light Snow 32 0 28 -2.2 85 85 S 9 15 30.12 1020 4 6.437376 0.001 0.001
4:46 pm 16:46 Cloudy with Light Snow 32 0 29 -1.7 88 88 S 8 13 30.12 1020 5 8.04672 0.01 0.254
4:54 pm 16:54 Cloudy with Light Snow 32 0 29 -1.7 88 88 S 8 13 30.06 1018 5 8.04672 0.01 0.254
5:54 pm 17:54 Cloudy 32 0 28 -2.2 85 85 S 13 20 30.03 1017 10 16.09344 0.001 0.001
6:46 pm 18:46 Cloudy 32 0 28 -2.2 85 85 S 10 17 30.06 1018 10 16.09344 0 0
6:54 pm 18:54 Cloudy 32 0 28 -2.2 85 85 S 10 17 30.03 1017 10 16.09344 0 0
7:09 pm 19:09 Cloudy 32 0 28 -2.2 85 85 S 10 17 30.06 1018 10 16.09344 0 0
7:54 pm 19:54 Cloudy 32 0 28 -2.2 85 85 S 10 17 30 1016 10 16.09344 0 0
8:01 pm 20:01 Cloudy 32 0 28 -2.2 85 85 S 9 15 30.03 1017 10 16.09344 0 0
8:54 pm 20:54 Cloudy 33 0.6 28 -2.2 82 82 S 9 15 29.97 1015 10 16.09344 0 0
9:32 pm 21:32 Cloudy 33 0.6 28 -2.2 82 82 S 10 17 30 1016 10 16.09344 0 0
9:54 pm 21:54 Cloudy 33 0.6 28 -2.2 82 82 S 12 19 29.97 1015 10 16.09344 0 0
10:39 pm 22:39 Cloudy 32 0 28 -2.2 85 85 SSE 13 20 29.97 1015 10 16.09344 0 0
10:54 pm 22:54 Mostly Cloudy 31 -0.6 27 -2.8 85 85 S 13 20 29.91 1013 10 16.09344 0 0
11:54 pm 23:54 Clear 31 -0.6 27 -2.8 85 85 S 12 19 29.91 1013 10 16.09344 0 0

Powered by AerisWeather